DW2891 Weather Reports


Display with metric or nautical units.
time (UTC)temp
F
wind
direction
speed
MPH
gust
MPH
rain 1hr
in
rain 24hr
in
rain mn
in
humidity
%
barometer
mb
20260507130606 49 5 0.0 0.0 0.00 0.00 0.00 85 1019.9
20260507130105 49 5 0.0 0.0 0.00 0.00 0.00 85 1019.9
20260507125604 50 5 0.0 0.0 0.00 0.00 0.00 85 1019.9
20260507125104 49 5 0.0 0.0 0.00 0.00 0.00 85 1019.9
20260507124605 49 5 0.0 0.0 0.00 0.00 0.00 85 1019.9
20260507124105 49 5 0.0 0.0 0.00 0.00 0.00 85 1019.8
20260507123605 49 5 0.0 0.0 0.00 0.00 0.00 85 1019.9
20260507123104 50 10 0.0 0.0 0.00 0.00 0.00 85 1019.8
20260507122605 50 277 0.0 0.0 0.00 0.00 0.00 85 1019.8
20260507122105 50 277 0.0 0.0 0.00 0.00 0.00 85 1019.8
20260507121605 50 277 0.0 0.0 0.00 0.00 0.00 85 1019.8
20260507121104 50 277 0.0 0.0 0.00 0.00 0.00 85 1019.9
20260507120104 50 277 0.0 0.0 0.00 0.00 0.00 84 1019.8
20260507115105 50 277 0.0 0.0 0.00 0.00 0.00 84 1019.9
20260507114605 51 277 0.0 0.0 0.00 0.00 0.00 84 1020.0
20260507114105 51 277 0.0 0.0 0.00 0.00 0.00 83 1020.0
20260507113605 51 277 0.0 0.0 0.00 0.00 0.00 82 1020.0
20260507112604 52 277 0.0 0.0 0.00 0.00 0.00 82 1020.0
20260507112104 52 277 0.0 0.0 0.00 0.00 0.00 82 1020.0
20260507111604 52 277 0.0 0.0 0.00 0.00 0.00 82 1020.0
20260507110604 52 277 0.0 1.0 0.00 0.00 0.00 82 1020.0
20260507110105 52 272 0.0 0.0 0.00 0.00 0.00 82 1020.1
20260507105605 52 272 1.0 9.0 0.00 0.00 0.00 82 1020.1
20260507105105 52 341 0.0 0.0 0.00 0.00 0.00 82 1020.1
20260507104105 52 341 0.0 0.0 0.00 0.00 0.00 82 1020.1
20260507103604 52 341 0.0 0.0 0.00 0.00 0.00 82 1020.1
20260507103104 52 341 0.0 0.0 0.00 0.00 0.00 82 1020.0
20260507102605 52 341 0.0 0.0 0.00 0.00 0.00 82 1020.0
20260507101605 52 339 0.0 0.0 0.00 0.00 0.00 84 1020.1
20260507101105 52 340 0.0 2.0 0.00 0.00 0.00 85 1020.0
20260507100605 52 340 0.0 0.0 0.00 0.00 0.00 84 1020.0
20260507100105 52 339 0.0 0.0 0.00 0.00 0.00 85 1020.0
20260507095104 52 339 0.0 0.0 0.00 0.00 0.00 86 1019.8
20260507094604 52 340 0.0 0.0 0.00 0.00 0.00 85 1019.8
20260507094104 52 339 0.0 0.0 0.00 0.00 0.00 84 1019.8
20260507093604 53 340 0.0 0.0 0.00 0.00 0.00 85 1019.8
20260507093105 53 340 0.0 0.0 0.00 0.00 0.00 85 1019.8
20260507092605 53 340 0.0 0.0 0.00 0.00 0.00 87 1019.9
20260507092105 53 339 0.0 0.0 0.00 0.00 0.00 87 1019.8
20260507091105 53 339 0.0 6.0 0.00 0.00 0.00 88 1019.8
20260507090105 53 301 1.0 8.0 0.00 0.00 0.00 91 1019.8
20260507084604 53 27 0.0 0.0 0.00 0.00 0.00 91 1019.7
20260507084104 54 27 0.0 0.0 0.00 0.00 0.00 91 1019.7
20260507083604 54 27 0.0 0.0 0.00 0.00 0.00 91 1019.7
20260507082605 54 27 0.0 0.0 0.00 0.00 0.00 91 1019.6
20260507082105 54 27 0.0 0.0 0.00 0.00 0.00 91 1019.6
20260507081605 54 27 0.0 0.0 0.00 0.00 0.00 91 1019.6
20260507081105 54 27 0.0 0.0 0.00 0.00 0.00 91 1019.7
20260507080604 54 28 0.0 0.0 0.00 0.00 0.00 91 1019.5
20260507080104 54 27 0.0 0.0 0.00 0.00 0.00 91 1019.5
20260507075604 54 28 0.0 0.0 0.00 0.00 0.00 91 1019.3
20260507075105 54 27 0.0 0.0 0.00 0.00 0.00 91 1019.3
20260507074605 54 28 0.0 0.0 0.00 0.00 0.00 91 1019.4
20260507074105 54 27 0.0 0.0 0.00 0.00 0.00 91 1019.3
20260507073605 54 27 0.0 0.0 0.00 0.00 0.00 91 1019.2
20260507072604 54 27 0.0 0.0 0.00 0.00 0.00 91 1019.3
20260507072104 54 27 0.0 0.0 0.00 0.00 0.00 91 1019.3
20260507071604 54 27 0.0 0.0 0.00 0.00 0.00 90 1019.3
20260507071104 54 27 0.0 0.0 0.00 0.00 0.00 91 1019.2
20260507070604 54 27 0.0 0.0 0.00 0.00 0.00 90 1019.2
20260507070105 54 27 0.0 0.0 0.00 0.00 0.00 90 1019.2
20260507065604 54 27 0.0 0.0 0.00 0.00 0.00 90 1019.1
20260507064604 54 27 0.0 0.0 0.00 0.00 0.00 90 1019.1
20260507064104 54 27 0.0 0.0 0.00 0.00 0.00 90 1019.0
20260507063604 54 27 0.0 0.0 0.00 0.00 0.00 90 1019.0
20260507063104 54 27 0.0 0.0 0.00 0.00 0.00 90 1019.0
20260507062604 54 27 0.0 0.0 0.00 0.00 0.00 90 1019.2
20260507062104 54 27 0.0 0.0 0.00 0.00 0.00 90 1019.1
20260507061604 54 27 0.0 0.0 0.00 0.00 0.00 90 1019.1
20260507061104 54 27 0.0 0.0 0.00 0.00 0.00 90 1019.0
20260507060605 54 28 0.0 0.0 0.00 0.00 0.00 90 1018.9
20260507060105 54 27 0.0 0.0 0.00 0.00 0.00 90 1018.8
20260507055605 54 27 0.0 0.0 0.00 0.00 0.00 90 1018.7
20260507055105 54 27 0.0 0.0 0.00 0.00 0.00 90 1018.7
20260507054605 54 27 0.0 0.0 0.00 0.00 0.00 89 1018.7
20260507054105 54 27 0.0 0.0 0.00 0.00 0.00 89 1018.7
20260507053605 54 27 0.0 0.0 0.00 0.00 0.00 89 1018.7
20260507053104 55 27 0.0 0.0 0.00 0.00 0.00 89 1018.7
20260507052604 55 28 0.0 0.0 0.00 0.00 0.00 89 1018.6
20260507052104 55 27 0.0 0.0 0.00 0.00 0.00 89 1018.6
20260507051604 55 27 0.0 0.0 0.00 0.00 0.00 89 1018.6
20260507051104 55 28 0.0 0.0 0.00 0.00 0.00 89 1018.7
20260507050604 55 27 0.0 0.0 0.00 0.00 0.00 89 1018.8
20260507050104 55 27 0.0 0.0 0.00 0.00 0.00 89 1018.8
20260507045604 55 28 0.0 0.0 0.00 0.00 0.00 89 1018.7
20260507045105 55 28 0.0 0.0 0.00 0.00 0.00 88 1018.8
20260507044104 55 28 0.0 0.0 0.00 0.00 0.00 88 1018.7
20260507043605 55 27 0.0 0.0 0.00 0.00 0.00 88 1018.7
20260507043104 55 27 0.0 0.0 0.00 0.00 0.00 88 1018.8
20260507042605 55 28 0.0 0.0 0.00 0.00 0.00 88 1018.8
20260507042105 55 27 0.0 0.0 0.00 0.00 0.00 88 1018.7
20260507041605 55 27 0.0 0.0 0.00 0.00 0.00 87 1018.8
20260507035604 56 28 0.0 0.0 0.00 0.00 0.00 86 1018.8
20260507034605 56 28 0.0 0.0 0.00 0.00 0.00 86 1018.5
20260507034104 56 28 0.0 0.0 0.00 0.00 0.00 85 1018.7
20260507033104 56 27 0.0 0.0 0.00 0.00 0.00 85 1018.5
20260507032604 56 27 0.0 0.0 0.00 0.00 0.00 85 1018.5
20260507032105 56 27 0.0 0.0 0.00 0.00 0.00 85 1018.4
20260507031604 56 27 0.0 0.0 0.00 0.00 0.00 84 1018.5
20260507030604 56 27 0.0 0.0 0.00 0.00 0.00 84 1018.7
20260507030104 57 27 0.0 0.0 0.00 0.00 0.00 83 1018.7
20260507025605 57 27 0.0 0.0 0.00 0.00 0.00 83 1018.6
20260507025104 57 28 0.0 0.0 0.00 0.00 0.00 83 1018.5
20260507024604 57 27 0.0 0.0 0.00 0.00 0.00 83 1018.5
20260507024104 57 27 0.0 0.0 0.00 0.00 0.00 82 1018.6
20260507023604 57 27 0.0 0.0 0.00 0.00 0.00 82 1018.5
20260507023105 57 27 0.0 0.0 0.00 0.00 0.00 82 1018.5
20260507022605 57 27 0.0 0.0 0.00 0.00 0.00 82 1018.5
20260507022105 58 28 0.0 0.0 0.00 0.00 0.00 82 1018.5
20260507021104 58 27 0.0 0.0 0.00 0.00 0.00 82 1018.5
20260507020604 58 27 0.0 0.0 0.00 0.00 0.00 82 1018.4
20260507015604 58 27 0.0 0.0 0.00 0.00 0.00 81 1018.5
20260507015104 58 27 0.0 0.0 0.00 0.00 0.00 81 1018.4
20260507014604 58 27 0.0 0.0 0.00 0.00 0.00 81 1018.4
20260507013604 57 27 0.0 0.0 0.00 0.00 0.00 82 1018.4
20260507013104 57 27 0.0 0.0 0.00 0.00 0.00 82 1018.4
20260507012604 57 27 0.0 0.0 0.00 0.00 0.00 82 1018.3
20260507012104 57 27 0.0 0.0 0.00 0.00 0.00 82 1018.5
20260507011604 57 27 0.0 0.0 0.00 0.00 0.00 83 1018.4
20260507010604 57 27 0.0 0.0 0.00 0.00 0.00 83 1018.5
20260507005604 57 28 0.0 0.0 0.00 0.00 0.00 83 1018.5
20260507004604 57 27 0.0 0.0 0.00 0.00 0.00 83 1018.6
20260507004104 57 27 0.0 0.0 0.00 0.00 0.00 83 1018.7
20260507003604 57 27 0.0 0.0 0.00 0.00 0.00 82 1018.7
20260507002604 57 27 0.0 0.0 0.00 0.00 0.00 83 1018.6
20260507002104 57 27 0.0 0.0 0.00 0.00 0.00 82 1018.7
20260507001604 57 27 0.0 0.0 0.00 0.00 0.00 82 1018.7
20260507001104 57 27 0.0 0.0 0.00 0.00 0.00 82 1018.8
20260507000604 57 27 0.0 0.0 0.00 0.00 0.00 82 1018.7
20260507000104 57 27 0.0 0.0 0.00 0.00 0.00 83 1018.7
20260506235605 57 27 0.0 0.0 0.00 0.00 0.00 83 1018.6
20260506235104 57 27 0.0 0.0 0.00 0.00 0.00 83 1018.7
20260506234604 57 27 0.0 0.0 0.00 0.00 0.00 83 1018.6
20260506234104 57 27 0.0 0.0 0.00 0.00 0.00 82 1018.7
20260506233604 57 28 0.0 0.0 0.00 0.00 0.00 82 1018.6
20260506233104 57 27 0.0 0.0 0.00 0.00 0.00 83 1018.6
20260506232604 57 27 0.0 0.0 0.00 0.00 0.00 81 1018.8
20260506232104 58 27 0.0 0.0 0.00 0.00 0.00 82 1018.7
20260506231605 58 27 0.0 0.0 0.00 0.00 0.00 81 1018.7
20260506231104 58 27 0.0 0.0 0.00 0.00 0.00 81 1018.8
20260506230604 58 27 0.0 0.0 0.00 0.00 0.00 83 1018.7
20260506230104 58 27 0.0 0.0 0.00 0.00 0.00 83 1018.7
20260506225604 58 27 0.0 0.0 0.00 0.00 0.00 81 1018.8
20260506225104 58 344 0.0 0.0 0.00 0.00 0.00 82 1018.8
20260506224604 58 300 0.0 0.0 0.00 0.00 0.00 81 1018.9
20260506224105 58 300 0.0 0.0 0.00 0.00 0.00 83 1018.8
20260506223604 58 300 0.0 2.0 0.00 0.00 0.00 81 1018.8
20260506222604 58 300 0.0 0.0 0.00 0.00 0.00 82 1019.0
20260506222104 58 300 0.0 0.0 0.00 0.00 0.00 82 1018.9
20260506221604 58 302 2.0 6.0 0.00 0.00 0.00 81 1018.8
20260506221104 59 280 0.0 0.0 0.00 0.00 0.00 80 1018.7
20260506220604 59 280 0.0 0.0 0.00 0.00 0.00 81 1018.8
20260506220104 59 280 0.0 0.0 0.00 0.00 0.00 81 1018.7
20260506215604 59 280 0.0 5.0 0.00 0.00 0.00 80 1018.7
20260506215104 60 339 0.0 0.0 0.00 0.00 0.00 81 1018.7
20260506214605 59 339 0.0 0.0 0.00 0.00 0.00 79 1018.6
20260506214104 60 5 0.0 5.0 0.00 0.00 0.00 79 1018.6
20260506213604 60 122 0.0 6.0 0.00 0.00 0.00 80 1018.6
20260506212604 59 73 0.0 2.0 0.00 0.00 0.00 79 1018.7
20260506212104 60 294 0.0 0.0 0.00 0.00 0.00 79 1018.7
20260506211604 60 288 0.0 0.0 0.00 0.00 0.00 81 1018.8
20260506211105 60 288 0.0 0.0 0.00 0.00 0.00 81 1018.8
20260506210605 59 291 1.0 5.0 0.00 0.00 0.00 79 1018.8
20260506210105 60 328 0.0 2.0 0.00 0.00 0.00 80 1018.7
20260506205603 61 328 0.0 0.0 0.00 0.00 0.00 81 1018.7
20260506205104 61 344 0.0 2.0 0.00 0.00 0.00 81 1018.8
20260506204604 60 32 0.0 8.0 0.00 0.00 0.00 80 1018.7
20260506204105 60 284 0.0 0.0 0.00 0.00 0.00 79 1018.7
20260506203604 59 284 0.0 1.0 0.00 0.00 0.00 80 1018.6
20260506203105 60 284 0.0 0.0 0.00 0.00 0.00 82 1018.8
20260506202605 60 284 1.0 5.0 0.00 0.00 0.00 78 1018.6
20260506201604 59 325 2.0 6.0 0.00 0.00 0.00 78 1018.7
20260506201103 60 339 2.0 5.0 0.00 0.00 0.00 78 1018.7
20260506200104 60 317 1.0 6.0 0.00 0.00 0.00 81 1018.5
20260506195104 59 50 0.0 0.0 0.00 0.00 0.00 81 1018.6
20260506194604 58 84 0.0 1.0 0.00 0.00 0.00 81 1018.7
20260506194104 58 85 0.0 0.0 0.00 0.00 0.00 79 1018.6
20260506193104 58 57 0.0 1.0 0.00 0.00 0.00 80 1018.6
20260506192604 59 55 0.0 0.0 0.00 0.00 0.00 81 1018.6
20260506192104 58 55 0.0 1.0 0.00 0.00 0.00 81 1018.5
20260506191604 58 54 0.0 6.0 0.00 0.00 0.00 81 1018.5
20260506191104 58 339 0.0 5.0 0.00 0.00 0.00 83 1018.5
20260506190604 58 110 0.0 0.0 0.00 0.00 0.00 82 1018.5
20260506190104 57 132 0.0 0.0 0.00 0.00 0.00 83 1018.6
20260506185604 57 284 2.0 6.0 0.00 0.00 0.00 82 1018.5
20260506185103 58 272 0.0 0.0 0.00 0.00 0.00 83 1018.4
20260506184604 57 272 0.0 0.0 0.00 0.00 0.00 85 1018.4
20260506183604 57 265 0.0 0.0 0.00 0.00 0.00 84 1018.3
20260506183105 57 265 0.0 0.0 0.00 0.00 0.00 84 1018.2
20260506182604 57 265 0.0 0.0 0.00 0.00 0.00 85 1018.3
20260506182105 56 265 0.0 2.0 0.00 0.00 0.00 86 1018.1
20260506181105 56 265 0.0 0.0 0.00 0.00 0.00 85 1018.1
20260506180604 56 266 1.0 6.0 0.00 0.00 0.00 86 1018.1
20260506175105 56 308 0.0 0.0 0.00 0.00 0.00 87 1018.0
20260506173604 56 289 0.0 0.0 0.00 0.00 0.00 87 1017.9
20260506173105 56 289 0.0 0.0 0.00 0.00 0.00 87 1018.0
20260506172604 56 289 0.0 0.0 0.00 0.00 0.00 86 1017.9
20260506172104 56 310 0.0 0.0 0.00 0.00 0.00 87 1017.9
20260506171604 56 310 0.0 0.0 0.00 0.00 0.00 87 1017.9
20260506171106 56 310 0.0 0.0 0.00 0.00 0.00 86 1017.9
20260506170604 57 310 0.0 0.0 0.00 0.00 0.00 86 1017.9
20260506170104 57 310 0.0 1.0 0.00 0.00 0.00 86 1017.9
20260506165604 57 310 0.0 0.0 0.00 0.00 0.00 86 1017.9
20260506165105 56 310 0.0 0.0 0.00 0.00 0.00 86 1017.7
20260506164604 56 310 0.0 0.0 0.00 0.00 0.00 87 1017.9
20260506164104 56 310 0.0 0.0 0.00 0.00 0.00 87 1017.8
20260506162604 55 310 0.0 0.0 0.00 0.00 0.00 89 1017.8
20260506162104 55 310 0.0 0.0 0.00 0.00 0.00 88 1017.7
20260506161604 56 310 0.0 0.0 0.00 0.00 0.00 86 1017.7
20260506161104 57 310 0.0 0.0 0.00 0.00 0.00 87 1017.5
20260506160604 57 310 0.0 0.0 0.00 0.00 0.00 88 1017.5
20260506155604 57 310 0.0 0.0 0.00 0.00 0.00 90 1017.3
20260506155104 57 310 0.0 0.0 0.00 0.00 0.00 90 1017.3
20260506154604 57 310 0.0 0.0 0.00 0.00 0.00 91 1017.3
20260506154104 57 310 0.0 0.0 0.00 0.00 0.00 92 1017.2
20260506153604 56 310 0.0 0.0 0.00 0.00 0.00 92 1017.2
20260506153104 56 310 0.0 0.0 0.00 0.00 0.00 92 1017.1
20260506152104 55 310 0.0 0.0 0.00 0.00 0.00 94 1017.2
20260506151604 55 319 1.0 6.0 0.00 0.00 0.00 94 1017.1
20260506151104 55 348 0.0 0.0 0.00 0.00 0.00 95 1017.1
20260506150604 55 348 0.0 0.0 0.00 0.00 0.00 95 1017.1
20260506150104 55 342 0.0 0.0 0.00 0.00 0.00 95 1017.2
20260506145604 55 343 0.0 0.0 0.00 0.00 0.00 95 1017.1
20260506144604 54 342 0.0 0.0 0.00 0.00 0.00 96 1017.2
20260506142603 53 67 0.0 0.0 0.00 0.00 0.00 96 1017.0
20260506141603 52 67 0.0 0.0 0.00 0.00 0.00 96 1017.1
20260506141104 52 67 0.0 0.0 0.00 0.00 0.00 95 1017.1
20260506140604 51 67 0.0 0.0 0.00 0.00 0.00 95 1017.1
20260506140104 51 67 0.0 0.0 0.00 0.00 0.00 95 1017.0
20260506135604 51 67 0.0 0.0 0.00 0.00 0.00 95 1016.8
20260506135104 51 67 0.0 0.0 0.00 0.00 0.00 95 1016.7
20260506134604 51 67 0.0 0.0 0.00 0.00 0.00 95 1016.7
20260506134104 51 67 0.0 0.0 0.00 0.00 0.00 95 1016.7
20260506133604 50 67 0.0 0.0 0.00 0.00 0.00 95 1016.8
20260506133104 50 67 0.0 0.0 0.00 0.00 0.00 95 1016.6
20260506132604 50 67 0.0 0.0 0.00 0.00 0.00 95 1016.6
20260506131604 50 67 0.0 0.0 0.00 0.00 0.00 95 1016.6
20260506131104 50 67 0.0 0.0 0.00 0.00 0.00 95 1016.5